Regional Weather Roundup
Issued by NWS Little Rock, AR

Current Version | Previous Version | Text Only | Print | Product List | Glossary On
Versions: 1 2 3 4 5 6 7 8 9 10 11 12 13 14 15 16 17 18 19 20 21 22 23 24 25 26 27 28 29 30 31 32 33 34 35 36 37 38 39 40 41 42 43 44 45 46 47 48 49 50
000
ASUS44 KLZK 070205
RWRLZK

WEATHER ROUNDUP FOR ARKANSAS
NATIONAL WEATHER SERVICE LITTLE ROCK AR
900 PM CDT MON JUL 06 2015

NOTE: "FAIR" INDICATES FEW OR NO CLOUDS BELOW 12,000 FEET WITH NO
SIGNIFICANT WEATHER AND/OR OBSTRUCTIONS TO VISIBILITY.

ARZ001-003-010-029-070300-
NORTHWEST ARKANSAS

CITY           SKY/WX    TMP DP  RH WIND       PRES   REMARKS
FAYETTEVILLE   MOCLDY    77  72  84 S8        29.95F
FORT SMITH     CLOUDY    82  70  66 S3        29.93F HX  86
HARRISON       CLOUDY    76  73  91 S3        29.98S
BENTONVILLE    CLOUDY    79  70  73 S7        29.96F
ROGERS         CLOUDY    79  71  76 S10       29.96F
SILOAM SPGS    CLOUDY    79  68  69 S7        29.95F
HIGHFILL       CLOUDY    78  73  84 S7        29.95F
SPRINGDALE     PTCLDY    79  72  78 S7G14     29.97
$$

ARZ004-005-016-070300-
NORTH CENTRAL ARKANSAS

CITY           SKY/WX    TMP DP  RH WIND       PRES   REMARKS
BATESVILLE     MOCLDY    79  73  83 CALM      29.97R
FLIPPIN          N/A     81  72  74 S6        29.94R
MTN HOME       MOCLDY    78  72  81 S5        29.95S
$$

ARZ040-041-070300-
WEST CENTRAL ARKANSAS

CITY           SKY/WX    TMP DP  RH WIND       PRES   REMARKS
MENA           MOCLDY    81  72  74 CALM      29.99R
MOUNT IDA      MOCLDY    81  73  76 CALM      29.96R HX  86
$$

ARZ009-017-025-026-028-070300-
NORTHEAST ARKANSAS

CITY           SKY/WX    TMP DP  RH WIND       PRES   REMARKS
JONESBORO      TSTM      73  72  96 SW21G28   29.99R FOG
NEWPORT        CLOUDY    77  74  90 SE6       29.99S
WALNUT RIDGE   MOCLDY    77  72  83 S15       29.97R
BLYTHEVILLE    PTCLDY    81  75  82 S9        29.99S HX  87
$$

ARZ022-023-033-042-044-070300-
CENTRAL ARKANSAS

CITY           SKY/WX    TMP DP  RH WIND       PRES   REMARKS
LITTLE ROCK    MOCLDY    81  73  76 S7        29.97S HX  86
N LITTLE ROCK  MOCLDY    82  75  79 S6        29.97S HX  89
JACKSONVILLE   PTCLDY    82  74  77 S2        29.97S HX  88
SEARCY         MOCLDY    80  76  87 S5        29.98S HX  86
HOT SPRINGS    MOCLDY    83  73  72 CALM      29.98R HX  89
RUSSELLVILLE   MOCLDY    80  73  79 S3        29.95R
CLINTON        FAIR      75  75 100 CALM      29.98R FOG
$$

ARZ036-070300-
EAST ARKANSAS

CITY           SKY/WX    TMP DP  RH WIND       PRES   REMARKS
WEST MEMPHIS   PTCLDY    78  75  90 S8        30.00R
$$

ARZ050-053-066-070-073-070300-
SOUTHWEST ARKANSAS

CITY           SKY/WX    TMP DP  RH WIND       PRES   REMARKS
ARKADELPHIA    FAIR      81  81 100 CALM      29.97F HX  92
CAMDEN         PTCLDY    79  73  83 CALM      29.99R
TEXARKANA      PTCLDY    81  74  79 S6        29.97R HX  86
EL DORADO      MOCLDY    81  75  82 CALM      30.00R HX  87
DE QUEEN       PTCLDY    80  75  84 CALM      29.94S HX  85
$$

ARZ056-057-069-070300-
SOUTHEAST ARKANSAS

CITY           SKY/WX    TMP DP  RH WIND       PRES   REMARKS
PINE BLUFF     PTCLDY    80  76  87 SE5       29.99R HX  86
STUTTGART      MOCLDY    82  75  78 MISG      29.97S HX  89
MONTICELLO     MOCLDY    82  78  88 S3        30.00R HX  91

$$





USA.gov is the U.S. government's official web portal to all federal, state and local government web resources and services.